Location: *
(41.0633°N, 102.0750°W)
Time: 03:49:05
(UTC+00:00)

Daily predictions for brighter satellites

Satellite Brightness Start Highest point End
(mag) Time Altitude Azimuth Time Altitude Azimuth Time Altitude Azimuth
Cosmos 2233 Rocket 4.1 02:35:02 10° S 02:41:19 85° E 02:47:41 10° N
Gbstr 26 Del rocket 3.6 02:40:35 10° WSW 02:44:52 55° NNW 02:48:38 10° NE
USA 215 3.3 02:38:55 10° NE 02:45:30 88° SE 02:52:04 10° SW
Cosmos 2263 Rocket 2.5 02:43:05 10° NNW 02:48:42 56° ENE 02:54:16 10° SE
Okean 3 Rocket 3.7 02:47:49 10° S 02:52:17 61° E 02:56:46 10° NNE
Cosmos 332 Rocket 3.8 02:49:25 10° NNW 02:54:14 87° ENE 02:59:02 10° SSE
Resurs 1-3 3.6 02:51:35 10° SSE 02:55:58 74° ENE 03:00:21 10° N
USA 186 3.6 02:55:39 10° SSW 02:57:59 24° W 03:00:12 10° NW
CZ-2C R/B 3.6 02:53:44 10° SE 02:58:49 44° ENE 03:03:40 10° N
DELTA 2 R/B (1) 3.9 02:55:16 10° SW 03:00:34 44° SSE 03:05:51 10° E
SL-4 R/B 3.1 02:56:58 10° SSW 03:01:13 32° SE 03:05:30 10° ENE
Cosmos 304 Rocket 4.2 02:56:38 10° N 03:01:20 49° ENE 03:06:00 10° SE
Cosmos 2058 3.0 02:57:34 10° S 03:01:46 87° WNW 03:06:00 10° N
Cosmos 2227 4.4 02:58:46 10° NNW 03:04:24 73° WSW 03:10:00 10° SSE
Cosmos 1766 Rocket 3.6 03:01:01 10° S 03:05:15 59° E 03:09:31 10° NNE
Cosmos 1408 4.4 03:03:41 11° ESE 03:05:41 15° E 03:07:56 10° NE
BREEZE-M DEB (TANK) 4.0 03:06:53 10° S 03:10:36 22° SE 03:14:01 10° ENE
Cosmos 1408 Rocket 3.9 03:06:54 10° SSE 03:11:00 45° E 03:15:06 10° NNE
Cosmos 2034 Rocket 4.5 03:05:24 10° SSE 03:11:08 41° E 03:16:57 10° NNE
Cosmos 44 Rocket 3.3 03:06:27 10° SSW 03:11:33 70° ESE 03:16:37 10° NE
MTI 4.0 03:09:12 10° NNE 03:12:17 47° E 03:15:21 10° S
USA 267 3.8 03:12:12 10° ESE 03:18:30 51° NNE 03:24:48 10° NW
USA 245 4.2 03:18:56 12° E 03:19:23 13° ENE 03:20:30 10° NE
NOSS 3-1 (C) 4.1 03:19:14 10° SSE 03:23:48 28° ESE 03:28:48 10° NE
Cosmos 921 Rocket 3.2 03:20:14 10° N 03:24:25 53° ENE 03:27:39 17° SE
H-2A R/B 2.8 03:19:31 10° S 03:24:51 56° W 03:30:09 10° NNW
COSMOS 2428 4.3 03:23:40 14° ESE 03:25:16 15° E 03:28:26 10° ENE
MetOp-A 4.2 03:20:56 10° SSE 03:26:17 82° WSW 03:31:40 10° NNW
H-2A ROCKET BODY 4.4 02:47:05 10° W 03:29:44 44° SSW 03:36:45 16° SE
Cosmos 1461 4.1 03:26:56 10° NW 03:30:32 34° WSW 03:34:12 10° S
SL-08 RB Rocket 4.1 03:26:18 10° S 03:30:44 61° W 03:35:11 10° NNW
Iridium 4 Rocket 3.8 03:26:17 10° N 03:32:13 74° E 03:37:53 10° S
Cosmos 407 Rocket 4.1 03:29:13 10° SSE 03:34:03 38° ESE 03:38:58 10° NE
Cosmos 2360 Rocket 2.2 03:29:31 10° S 03:35:01 57° ESE 03:40:33 10° NNE
Cosmos 2228 Rocket 4.0 03:32:11 10° N 03:36:23 34° ENE 03:38:49 20° SE
Cosmos 1464 Rocket 4.0 03:30:18 10° S 03:36:36 89° WNW 03:42:51 10° N
Cosmos 1151 Rocket 3.0 03:33:32 10° N 03:37:56 69° E 03:41:08 18° SSE
Cosmos 1825 3.2 03:36:32 22° SE 03:37:56 28° E 03:41:12 10° NNE
Cosmos 1340 Rocket 4.1 03:36:42 10° NNW 03:40:32 39° W 03:44:21 10° SSW
ERS-1 Rocket 3.7 03:37:30 19° SE 03:40:37 39° ENE 03:45:16 10° N
Tiangong 2 1.3 03:38:03 10° W 03:41:05 52° SSW 03:42:16 30° SE
Resurs 01 Rocket 2.6 03:36:58 10° S 03:41:12 45° W 03:45:29 10° NNW
Cosmos 1190 Rocket 4.5 03:37:17 13° SSE 03:41:24 39° ESE 03:46:14 10° NE
SL-23 DEB 4.2 03:42:01 10° NW 03:46:48 56° NNE 03:48:46 23° E
Cosmos 1933 4.1 03:43:56 10° N 03:47:40 35° ENE 03:49:12 25° ESE
Thor Agena Rocket 4.0 03:43:02 10° NNE 03:47:46 39° E 03:50:37 21° SSE
Cosmos 1242 Rocket 4.4 03:49:08 10° SW 03:52:25 31° WNW 03:55:45 10° N
Cosmos 1328 Rocket 3.8 03:48:16 10° NNW 03:52:37 69° W 03:55:58 16° S
DMSP B5D2-2 4.4 03:47:38 10° N 03:52:49 67° WNW 03:57:58 10° SSW
CZ-2C R/B 2.5 03:49:11 10° NNE 03:54:22 66° ESE 03:58:46 14° S
EO 1 Del DPAF 3.1 03:53:50 10° NNE 03:57:39 75° ESE 04:00:04 21° S
BREEZE-M DEB (TANK) 4.1 03:56:26 10° NW 03:58:04 18° N 04:00:17 10° NE
USA 229 DEB 3.5 03:55:14 10° SSW 04:01:44 72° ESE 04:08:33 10° NE
USA 229 3.5 03:55:21 10° SSW 04:01:52 71° ESE 04:08:38 10° NE
ISS -1.7 03:59:01 10° W 04:02:01 30° NNW 04:05:02 10° NE
Cosmos 1500 Rocket 3.5 04:00:10 20° S 04:03:12 77° E 04:07:41 10° N
SPOT 5 3.4 04:01:14 27° SE 04:03:39 47° ENE 04:08:18 10° N
Cosmos 2219 Rocket 3.0 04:02:51 26° SE 04:04:34 31° ESE 04:09:30 10° NE
NOSS 3-1 (A) 3.7 04:02:37 23° SSE 04:05:16 37° ESE 04:10:48 10° NE
Cosmos 2322 Rocket 3.6 04:01:09 10° SW 04:06:28 39° WNW 04:11:49 10° N
ADEOS Rocket 3.9 04:02:24 10° N 04:07:40 44° WNW 04:12:49 10° SW
Cosmos 2333 4.3 04:06:39 19° S 04:10:37 53° ESE 04:16:09 10° NNE
Cosmos 1892 4.5 04:09:43 10° SW 04:13:09 31° WNW 04:16:36 10° NNW
SL-16 R/B 4.1 04:08:31 10° WSW 04:13:30 31° WNW 04:18:31 10° N
SPOT 1/Viking Rocket 3.5 04:12:34 30° SSE 04:15:13 80° ENE 04:20:26 10° N
BREEZE-M DEB (TANK) 4.0 04:11:50 10° SW 04:15:51 87° SSE 04:30:54 10° ENE
Cosmos 2333 Rocket 2.7 04:14:33 31° SE 04:16:25 39° ESE 04:21:39 10° NE
Cosmos 2278 Rocket 4.1 04:12:37 10° N 04:16:30 18° NE 04:19:32 13° E
Meteor 2-3 Rocket 3.8 04:15:00 26° S 04:18:17 64° E 04:24:02 10° NNE
IGS 5A 3.4 04:17:00 40° SSE 04:18:25 77° ENE 04:22:35 10° N
Landsat 7 3.7 04:16:23 33° SSE 04:18:34 87° ENE 04:23:22 10° NNW
Landsat 4 4.1 04:18:13 10° NNE 04:21:40 41° E 04:21:40 41° E
Lacrosse 5 rocket 4.3 04:24:00 10° NNW 04:26:13 13° NNE 04:28:25 10° NE
Meteor 1-26 Rocket 4.2 04:20:51 10° N 04:26:28 70° E 04:28:41 37° SSE
Cosmos 2322 3.7 04:21:12 10° SSW 04:26:51 88° WNW 04:32:33 10° NNE
Cosmos 1844 Rocket 2.7 04:21:43 10° NNW 04:27:26 76° ENE 04:29:45 37° SE
Cosmos 292 Rocket 3.7 04:27:04 10° NNW 04:31:56 76° ENE 04:33:20 46° SE
Cosmos 2263 Rocket 4.2 04:28:03 10° NW 04:32:08 20° W 04:36:11 10° SW
Cosmos 1818 4.1 04:28:30 10° NNW 04:33:49 49° NE 04:35:51 33° ESE
Lacrosse 5 4.5 04:31:28 10° NNW 04:34:22 15° NNE 04:37:16 10° NE
ASTEX 1 3.8 04:31:00 10° NNE 04:35:50 46° E 04:36:41 42° ESE
Cosmos 1707 Rocket 4.1 04:33:14 10° N 04:37:29 41° ENE 04:37:58 40° E
Cosmos 1408 4.3 04:38:01 15° SW 04:40:27 30° WNW 04:43:47 10° NNW
SL-4 R/B 3.0 04:36:03 10° WSW 04:40:50 57° NNW 04:45:34 10° NE
Cosmos 1782 3.2 04:38:37 10° N 04:42:31 45° E 04:42:32 45° E
Cosmos 1627 Rocket 4.4 04:38:22 10° N 04:44:34 87° E 04:47:09 38° S
DELTA 2 R/B (1) 3.4 04:41:09 10° W 04:46:45 76° S 04:49:26 32° E
Terra 1.7 04:46:36 53° SSE 04:47:44 86° ENE 04:52:32 10° NNW
Cosmos 1356 Rocket 4.3 04:43:40 10° NNW 04:47:47 45° W 04:49:07 33° SW
MOS 1 Rocket 3.1 04:46:27 10° NNE 04:51:00 75° ESE 04:51:52 57° SSE
Cosmos 676 Rocket 4.0 04:49:44 30° SSW 04:52:23 79° WNW 04:57:40 10° NNE
IRAS Rocket 4.5 04:52:19 43° ESE 04:53:52 59° ENE 04:59:23 10° N
Cosmos 2279 Rocket 3.9 04:53:14 43° SSE 04:55:19 70° E 05:01:29 10° NNE
Cosmos 1805 Rocket 3.7 04:54:40 48° SW 04:55:45 68° W 05:00:05 10° N
Cosmos 1867 3.7 04:55:35 51° SE 04:55:57 52° ESE 05:01:16 10° NE
Cosmos 1606 3.4 04:56:00 10° NNW 04:59:36 44° W 04:59:54 43° WSW
USA 267 3.6 04:59:18 37° S 05:01:29 51° SW 05:07:50 10° NW
NOSS 2-3 (C) 4.0 05:02:29 50° E 05:02:29 50° E 05:06:39 10° NE
Cosmos 1741 Rocket 4.3 05:02:55 46° E 05:02:55 46° E 05:07:49 10° NNE
Mayak -0.1 04:59:43 10° NNE 05:02:45 32° ENE 05:02:45 32° ENE
ATLAS CENTAUR R/B 3.2 05:02:01 10° NNW 05:05:56 25° NE 05:07:06 23° ENE
Cosmos 1954 Rocket 4.3 05:03:26 29° SW 05:06:01 65° WNW 05:11:17 10° NNE
SL-16 R/B 4.2 05:07:33 13° E 05:07:33 13° E 05:09:06 10° ENE
Cosmos 1607 3.8 05:00:37 10° NNW 05:06:48 84° WSW 05:08:26 52° SSE
COSMOS 2428 2.9 05:05:35 27° SW 05:08:48 73° WNW 05:14:32 10° NNE
Cosmos 1140 Rocket 4.4 05:06:39 17° SW 05:10:23 45° WNW 05:15:23 10° N
Cosmos 1844 3.9 05:06:00 10° NNW 05:11:32 60° WSW 05:12:49 47° SSW
Cosmos 1850 Rocket 4.0 05:12:32 59° ESE 05:12:48 60° ESE 05:18:04 10° NNE
Meteor 1-10 Rocket 4.3 05:08:15 10° N 05:13:53 65° ENE 05:14:53 55° SE
NOSS 3-1 (C) 4.3 05:08:51 10° WSW 05:14:13 47° NW 05:20:22 10° NNE
Cosmos 1980 3.8 05:14:41 52° ESE 05:14:51 52° ESE 05:20:22 10° NNE
Cosmos 1666 Rocket 3.5 05:16:06 73° WSW 05:16:24 77° W 05:20:54 10° N
Cosmos 1633 Rocket 2.9 05:17:36 84° NNE 05:17:36 84° NNE 05:21:50 10° N
NOSS 0 Rocket 3.8 05:18:01 55° SSE 05:19:14 69° ESE 05:25:22 10° NNE
Cosmos 2360 Rocket 4.5 05:15:03 10° WSW 05:19:24 22° NW 05:23:46 10° N
Cosmos 2237 Rocket 2.3 05:21:51 55° ESE 05:21:53 55° ESE 05:27:22 10° NNE
ALOS 2 4.3 05:23:46 23° ENE 05:23:46 23° ENE 05:27:10 10° NNE
Meteor 2-6 Rocket 4.0 05:20:45 10° N 05:26:14 90° WSW 05:27:01 67° S
SL-8 R/B 3.9 05:22:47 10° WNW 05:26:58 58° WSW 05:26:58 58° WSW
Cosmos 2084 Rocket 4.2 05:26:15 10° NW 05:29:49 44° W 05:29:49 44° W
Sich 1 4.2 05:33:30 33° W 05:34:10 35° WNW 05:38:07 10° N
Cosmos 1862 Rocket 3.8 05:30:29 10° N 05:34:17 63° NNE 05:34:17 63° NNE
SeaSat 1 3.7 05:31:12 10° NE 05:34:17 29° ENE 05:34:17 29° ENE
Cosmos 1470 Rocket 3.8 05:36:56 61° NNE 05:36:56 61° NNE 05:40:39 10° N
GP-B 3.9 05:33:13 10° NNE 05:36:46 43° ENE 05:36:46 43° ENE
ISS -0.5 05:37:40 10° NW 05:39:31 14° N 05:41:21 10° NNE
Cosmos 1763 Rocket 3.7 05:41:33 10° NNW 05:46:41 58° ENE 05:46:51 58° ENE
COSMOS 2455 3.1 05:47:54 52° E 05:47:54 52° E 05:53:24 10° NE
Cosmos 2219 Rocket 3.4 05:44:29 17° WSW 05:48:23 37° WNW 05:53:38 10° N
Cosmos 1655 Rocket 4.3 05:45:03 10° NNW 05:51:10 59° W 05:52:28 49° SW
Cosmos 468 Rocket 3.9 05:46:10 10° NNW 05:51:28 86° ENE 05:51:32 86° E
ATLAS 5 CENTAUR R/B 4.4 05:52:35 10° N 05:56:51 21° NE 06:01:30 10° E
Cosmos 724 4.3 05:51:53 10° NNW 05:57:55 71° ENE 05:58:39 63° ESE
ERS-2 4.4 06:00:51 20° NE 06:00:51 20° NE 06:02:45 10° NNE
Cosmos 2333 Rocket 3.8 05:56:29 14° WSW 06:00:43 31° WNW 06:05:46 10° N
Cosmos 2278 Rocket 2.1 05:55:31 10° NNW 06:01:12 74° WSW 06:01:22 73° SW
Cosmos 1932 4.4 05:55:21 10° NNW 06:01:50 81° ENE 06:02:53 64° SE
Meteor 1-27 Rocket 3.7 05:56:27 10° NNW 06:02:22 82° W 06:02:53 74° SSW
Helios 1A 4.1 06:07:23 39° WNW 06:07:23 39° WNW 06:10:30 10° NNW
Lacrosse 5 rocket 2.7 06:02:24 10° NNW 06:06:39 36° NE 06:07:03 35° NE
Meteor 2-13 Rocket 4.4 06:06:20 10° NNW 06:12:25 72° W 06:13:02 67° SW
Cosmos 1812 4.1 06:11:13 10° NNW 06:13:41 37° NNW 06:13:41 37° NNW
Cosmos 2208 Rocket 4.0 06:09:53 10° NNW 06:15:11 83° WNW 06:15:11 83° WNW
Lacrosse 5 3.0 06:13:54 10° NNW 06:18:38 38° NE 06:19:56 32° ENE
Cosmos 2285 Rocket 3.8 06:20:58 76° SSE 06:21:26 83° ESE 06:27:46 10° NNE
Cosmos 1570 Rocket 4.3 06:20:03 10° NNW 06:24:43 56° W 06:24:43 56° W
Cosmos 2369 Rocket 4.4 06:21:58 10° N 06:25:50 18° NE 06:29:08 12° E
Cosmos 1315 Rocket 4.2 06:23:10 10° N 06:25:42 36° NNE 06:25:42 36° NNE
Cosmos 1400 Rocket 4.2 06:24:30 10° NNW 06:27:14 35° NW 06:27:14 35° NW
Cosmos 1244 Rocket 4.4 06:23:37 10° N 06:29:59 73° E 06:30:34 68° ESE
Mayak 0.9 06:35:55 10° NNW 06:38:58 19° WNW 06:39:19 19° WNW
Cosmos 1814 Rocket 4.1 06:34:31 10° NNW 06:39:01 66° NW 06:39:01 66° NW
SL-24 R/B - RUBIN 2 4.3 06:35:41 10° NW 06:41:31 72° WSW 06:41:31 72° WSW
Cosmos 1553 Rocket 3.9 06:41:44 65° ESE 06:41:55 65° E 06:47:58 10° NNE
ATLAS CENTAUR R/B 3.2 06:40:45 10° NW 06:43:17 27° WNW 06:43:17 27° WNW
Lacrosse 4 Rocket 2.4 06:47:12 49° N 06:47:12 49° N 06:50:42 10° NNE
Helios 1B rocket 3.9 06:43:08 10° N 06:46:16 32° NW 06:46:16 32° NW
S3M 4.2 06:46:29 56° ESE 06:46:58 57° E 06:53:13 10° NNE
ATLAS 2AS CENTAUR R/B 3.7 06:47:00 38° ESE 06:47:28 38° ESE 06:54:44 10° NE
Cosmos 1417 Rocket 4.4 06:47:25 71° SE 06:47:49 73° E 06:54:05 10° N
SL-16 R/B 2.2 06:49:25 75° WNW 06:49:31 75° WNW 06:55:13 10° NNE
Okean 1-7 4.4 06:55:24 10° NNW 06:58:15 34° NW 06:58:15 34° NW
ALOS 2 4.2 07:01:10 27° WNW 07:01:10 27° WNW 07:03:50 10° NNW
Cosmos 540 Rocket 3.8 06:54:58 10° NNW 06:59:17 58° WNW 06:59:17 58° WNW
Cosmos 2237 Rocket 4.1 07:03:38 17° W 07:06:17 23° NW 07:10:43 10° N
Cosmos 1943 4.4 07:07:29 30° E 07:07:29 30° E 07:11:51 10° NE
Cosmos 2221 Rocket 4.3 07:02:58 10° N 07:06:23 51° NNW 07:06:23 51° NNW
SeaSat 1 3.7 07:08:46 10° N 07:13:08 32° NW 07:14:03 30° WNW
Cosmos 1486 Rocket 4.2 07:14:12 66° WNW 07:14:12 66° WNW 07:19:20 10° NNE
ISS -0.8 07:14:53 10° NNW 07:17:12 17° NNE 07:18:35 14° NE
SL-19 R/B 4.1 07:11:52 10° N 07:17:28 74° WNW 07:17:29 74° WNW
Cosmos 1745 Rocket 3.8 07:11:15 10° N 07:17:34 88° E 07:18:05 77° SSE
Cosmos 1503 Rocket 4.0 07:26:01 78° NE 07:26:01 78° NE 07:31:01 10° NNE
Cosmos 2315 Rocket 4.3 07:29:01 52° ESE 07:29:54 56° E 07:36:06 10° NNE
Meteor 1-19 Rocket 4.1 07:24:40 10° NNW 07:29:57 77° WNW 07:29:57 77° WNW
Cosmos 968 Rocket 3.5 07:31:13 77° NNE 07:31:13 77° NNE 07:36:00 10° NNE
COSMOS 2455 4.4 07:31:01 20° W 07:33:46 29° NW 07:38:57 10° N
SL-08 ROCKET BODY 4.3 07:31:47 10° N 07:37:57 83° E 07:38:34 72° SSE
Cosmos 1386 Rocket 4.3 07:33:01 10° NNW 07:39:02 72° W 07:39:19 71° WSW
Cosmos 1536 4.1 07:41:54 36° NE 07:41:54 36° NE 07:44:43 10° NNE
Cosmos 1943 Rocket 2.3 07:35:39 10° NNW 07:41:09 67° ENE 07:41:48 61° ESE
ATLAS 5 CENTAUR R/B 2.3 07:36:16 10° NW 07:42:14 88° NE 07:43:19 64° SE
Meteor 1-11 Rocket 3.7 07:44:07 68° ESE 07:44:25 69° E 07:50:04 10° NNE
Resurs 1-4 Rocket 3.5 07:40:59 10° NE 07:45:26 27° E 07:46:04 26° ESE
Lacrosse 5 rocket 3.8 07:41:44 10° WNW 07:42:40 15° WNW 07:42:40 15° WNW
Cosmos 1354 Rocket 4.1 07:46:00 69° WNW 07:46:00 69° WNW 07:51:16 10° NNE
NOSS 3-4 (A) 3.7 07:51:52 50° SE 07:52:12 51° ESE 07:58:13 10° NE
NOSS 3-4 (C) 3.7 07:51:58 50° SE 07:52:18 50° ESE 07:58:19 10° NE
Cosmos 1975 Rocket 4.3 07:53:17 10° NNE 07:57:10 32° ENE 07:57:32 31° E
Cosmos 1674 Rocket 4.2 07:54:28 10° NNW 07:57:57 48° NW 07:57:57 48° NW
Cosmos 1733 Rocket 4.2 07:59:48 35° NW 07:59:48 35° NW 08:03:10 10° N
Unknown 4.5 08:02:04 48° NE 08:02:04 48° NE 08:05:08 10° NE
Lacrosse 5 3.4 07:56:54 10° WNW 07:59:04 23° WNW 07:59:04 23° WNW
Unknown 4.5 08:03:33 47° NE 08:03:33 47° NE 08:06:36 10° NE
CZ-4B R/B 3.5 07:57:51 10° N 08:02:45 67° WNW 08:02:45 67° WNW
Unknown 4.4 08:05:10 49° NE 08:05:10 49° NE 08:08:16 10° NE
Cosmos 1500 4.3 08:07:06 42° N 08:07:06 42° N 08:09:46 10° N
Unknown 4.3 08:08:22 53° NE 08:08:22 53° NE 08:11:36 10° NE
Meteor 1-5 Rocket 4.3 08:06:53 64° SW 08:07:37 71° WNW 08:13:36 10° N
Unknown 4.2 08:09:56 54° NE 08:09:56 54° NE 08:13:14 10° NE
BREEZE M DEB (TANK) 4.0 08:08:07 33° WNW 08:10:08 58° NNW 08:23:59 10° ENE
Cosmos 2369 Rocket 2.0 08:04:47 10° NNW 08:10:30 76° WSW 08:10:53 72° SSW
Unknown 4.2 08:11:34 56° NNE 08:11:34 56° NNE 08:14:55 10° NE
Unknown 4.5 08:11:47 44° N 08:11:47 44° N 08:14:47 10° NE
Unknown 4.2 08:13:08 57° NNE 08:13:08 57° NNE 08:16:34 10° NE
NOSS 3-2 (A) 4.0 08:04:58 10° NW 08:12:40 83° WSW 08:17:14 31° SSE
CZ-2D R/B 2.7 08:07:37 10° NNE 08:12:53 48° E 08:13:53 43° SE
Unknown 4.1 08:14:44 58° NNE 08:14:44 58° NNE 08:18:14 10° NE
Cosmos 1378 Rocket 4.2 08:10:12 10° NNW 08:13:33 48° NW 08:13:33 48° NW
Meteor 2-8 Rocket 4.4 08:15:20 57° SSE 08:16:39 78° E 08:22:48 10° N
CENTAUR R/B 3.7 08:09:43 10° NNW 08:17:39 59° NE 08:26:11 10° SE
Unknown 4.1 08:18:04 57° N 08:18:04 57° N 08:21:49 10° NE
Unknown 4.1 08:19:38 57° N 08:19:38 57° N 08:23:24 10° NE
Cosmos 1603 4.2 08:19:27 42° W 08:20:28 46° WNW 08:25:55 10° NNE
Unknown 4.0 08:21:10 59° N 08:21:10 59° N 08:24:56 10° NE
Unknown 4.0 08:22:43 60° N 08:22:43 60° N 08:26:32 10° NE
RESURS DK-1 4.1 08:22:55 24° ESE 08:22:55 24° ESE 08:26:09 10° NE
ATLAS 3B R/B 3.0 08:16:12 10° NNW 08:22:50 65° NE 08:29:34 10° SE
Cosmos 1908 Rocket 4.1 08:25:21 48° WNW 08:25:21 48° WNW 08:29:14 10° N
Unknown 4.0 08:25:55 58° NNW 08:25:55 58° NNW 08:29:51 10° NE
OceanSat 1 rocket 4.5 08:21:36 10° NNE 08:26:25 83° ESE 08:26:44 77° SSE
Unknown 4.0 08:27:29 57° NNW 08:27:29 57° NNW 08:31:29 10° NE
Unknown 4.1 08:29:06 56° NNW 08:29:06 56° NNW 08:33:09 10° NE
Okean 2 Rocket 3.8 08:28:36 42° ESE 08:29:07 44° E 08:33:21 10° NNE
Unknown 4.2 08:30:06 49° NW 08:30:09 49° NNW 08:34:07 10° NE
Unknown 4.1 08:30:42 54° NW 08:30:44 54° NW 08:34:49 10° NE
Meteor 1-23 Rocket 4.2 08:27:33 10° NNW 08:33:24 80° W 08:34:41 56° S
Unknown 4.2 08:37:04 47° NW 08:37:23 48° NNW 08:41:26 10° NE
Cosmos 773 Rocket 3.9 08:32:48 10° NNW 08:38:05 88° WSW 08:39:10 58° SSE
ATLAS 2AS CENTAUR R/B 3.5 08:34:25 31° WSW 08:38:16 56° NW 08:46:12 10° NNE
USA 238 DEB 4.1 08:31:46 10° NW 08:38:38 47° WSW 08:39:49 44° SW
USA 238 4.0 08:31:52 10° NW 08:38:44 48° WSW 08:39:58 44° SW
Unknown 4.3 08:38:38 45° NW 08:39:03 47° NNW 08:43:04 10° NE
UNK 3.6 08:39:02 73° SSE 08:39:28 90° W 08:44:05 10° NNW
Cosmos 2074 Rocket 4.0 08:33:58 10° N 08:40:17 83° E 08:42:50 39° SSE
Unknown 4.3 08:40:14 44° NW 08:40:42 46° NNW 08:44:43 10° NE
Cosmos 2263 4.2 08:35:51 10° NNW 08:41:22 58° WSW 08:41:54 55° SW
Unknown 4.4 08:41:36 42° NW 08:42:10 45° NNW 08:46:11 10° NE
Unknown 4.4 08:41:51 42° NW 08:42:23 45° NNW 08:46:23 10° NE
Milstar 3 3.9 08:44:22 24° SSE 08:44:22 24° SSE 08:48:54 10° ESE
Unknown 4.4 08:43:27 40° WNW 08:44:04 44° NNW 08:48:04 10° NE
H-2A R/B 2.2 08:45:00 63° W 08:45:00 63° W 08:49:27 10° NNW
CZ-4B R/B 4.1 08:43:48 10° ESE 08:45:33 15° ENE 08:47:24 10° NNE
SL-16 R/B 2.4 08:44:51 43° S 08:47:04 77° WSW 08:53:17 10° NNW
Cosmos 1743 2.8 08:49:16 67° ESE 08:49:20 67° E 08:53:11 10° NNE
Cosmos 1943 4.1 08:49:17 32° W 08:50:52 38° WNW 08:56:08 10° N
ISS -0.9 08:51:04 10° NW 08:51:09 10° NW 08:51:09 10° NW
IRS-1C 4.4 08:52:46 10° NNE 08:58:05 63° ESE 09:00:06 37° SSE
Nadezhda 1 Rocket 4.0 08:55:44 37° S 08:58:28 84° E 09:04:53 10° N
Cosmos 1782 Rocket 4.3 08:58:47 38° W 08:58:56 38° WNW 09:03:08 10° N
AQUA 3.7 08:55:09 10° N 08:59:55 77° WNW 09:00:55 55° SW
ARIANE 5 R/B 3.3 08:55:12 10° NNE 09:00:07 45° E 09:02:31 27° SSE
CBERS-1 3.9 08:56:26 10° NNE 09:01:36 83° WNW 09:03:03 48° SSW
Cosmos 1300 Rocket 3.8 09:03:02 45° SSE 09:04:13 66° E 09:08:38 10° NNE
Cosmos 1656 Rocket 3.6 08:58:37 10° NNW 09:04:17 69° WSW 09:06:33 37° S
NPP 3.8 08:59:03 10° N 09:04:22 60° WNW 09:05:55 43° SW
CZ-4C R/B 2.9 09:04:26 87° ENE 09:04:26 87° ENE 09:08:01 10° NNW
Cosmos 2151 Rocket 3.8 09:03:13 45° SSE 09:04:27 68° E 09:08:57 10° NNE
Cosmos 1666 3.7 09:08:44 32° WNW 09:08:44 32° WNW 09:12:00 10° NNW
Cosmos 1066 Rocket 4.4 09:04:25 10° NNW 09:10:03 55° W 09:11:42 40° SW
MOZ.5/SAFIR/RUBIN 5/SL-8 4.1 09:09:49 43° WSW 09:10:09 44° W 09:14:40 10° NNW
Cosmos 1538 Rocket 4.1 09:06:56 10° NNW 09:12:02 53° WSW 09:13:10 44° SW
SL-08 R/B 3.2 09:12:27 35° SSE 09:14:28 89° W 09:19:14 10° NNW
Atlas Centaur 2 4.0 09:14:11 21° SSE 09:14:37 21° SSE 09:19:17 10° ESE
Genesis I 3.2 09:20:07 56° SW 09:20:56 83° WNW 09:25:02 10° NNE
Cosmos 1346 Rocket 3.3 09:21:08 42° W 09:21:34 43° WNW 09:25:24 10° N
BREEZE-M DEB (TANK) 2.7 09:19:14 10° WNW 09:24:41 33° SE 09:26:19 10° SE
Spot 4 Rocket 4.3 09:18:41 10° NNE 09:23:49 63° ESE 09:26:43 26° S
Cosmos 1943 Rocket 3.9 09:21:02 10° WNW 09:23:17 15° W 09:23:17 15° W
Cosmos 1610 Rocket 4.4 09:18:42 10° NNW 09:24:51 69° W 09:28:18 27° S
NOSS 3-2 (C) 4.3 09:17:34 10° NW 09:24:55 46° WSW 09:31:32 15° S
Resurs 1-4 Rocket 2.9 09:20:27 10° N 09:25:19 38° WNW 09:27:09 29° WSW
Okean 1 Rocket 3.9 09:22:59 22° SSE 09:25:36 47° E 09:29:55 10° NNE
ATLAS 5 CENTAUR R/B 4.1 09:22:39 10° WNW 09:24:47 15° W 09:24:47 15° W
Cosmos 2154 Rocket 4.0 09:20:33 10° N 09:26:53 74° W 09:30:58 23° S
Cosmos 1025 Rocket 3.2 09:23:38 10° N 09:28:03 74° E 09:30:47 23° SSE
Landsat 5 3.5 09:26:56 37° S 09:28:36 67° WSW 09:32:59 10° NNW
Cosmos 1340 3.2 09:29:15 38° W 09:29:36 39° WNW 09:33:10 10° N
CZ-2C R/B 4.0 09:26:13 10° NNE 09:29:40 35° E 09:31:47 20° SSE
Meteor 2-9 Rocket 4.2 09:27:27 26° S 09:30:34 78° E 09:36:08 10° NNE
Cosmos 1680 Rocket 3.7 09:25:15 10° NNW 09:30:34 75° ENE 09:35:50 10° SSE
ADEOS II 2.1 09:26:07 10° NNE 09:31:25 77° ESE 09:34:28 26° S
Meteor 1-21 4.4 09:26:31 10° N 09:32:21 79° E 09:37:51 11° SSE
USA 215 3.9 09:27:11 10° ESE 09:33:33 58° NE 09:39:57 10° NW
IRS-P3 4.4 09:28:27 10° N 09:33:39 53° WNW 09:35:59 31° SW
Cosmos 1937 Rocket 4.4 09:31:46 18° SSE 09:35:19 43° ESE 09:40:16 10° NNE
Cosmos 1898 Rocket 3.8 09:35:02 24° S 09:38:13 66° ESE 09:43:31 10° NNE
Cosmos 1544 4.0 09:38:11 20° SSE 09:40:22 45° E 09:43:56 10° NNE
SL-4 R/B 2.8 09:38:13 10° NW 09:42:44 57° NNE 09:46:55 10° ESE
IRS-1D 4.2 09:40:46 10° N 09:45:19 38° WNW 09:47:28 26° WSW
CZ-2D R/B 3.6 09:48:22 10° NNW 09:52:37 24° WNW 09:55:13 17° WSW
PSLV R/B 2.6 09:56:02 41° W 09:56:52 87° SSE 09:59:40 10° E
SJ 16-02 1.7 09:54:01 19° S 09:57:03 62° ESE 10:01:24 10° NNE
RESURS DK-1 3.6 09:58:49 20° W 10:00:41 29° WNW 10:04:21 10° N
Cosmos 1975 4.3 10:00:15 20° W 10:01:26 22° WNW 10:04:42 10° NNW
SL-8 Rocket 4.0 09:58:07 10° N 10:04:27 88° W 10:10:47 10° S
CENTAUR R/B 3.6 10:00:51 10° NW 10:08:17 38° WSW 10:16:03 10° S
COSMOS 2406 3.2 10:07:47 17° SSW 10:12:13 87° WNW 10:17:56 10° NNE
Cosmos 2181 Rocket 4.1 10:07:28 15° SSW 10:12:47 66° W 10:18:59 10° N
ATLAS 3B R/B 3.6 10:07:47 10° WNW 10:12:59 25° WSW 10:17:29 13° SSW
Cosmos 1689 Rocket 2.6 10:14:58 23° SSW 10:16:22 38° W 10:19:12 10° NNW
CZ-4B R/B 2.5 10:17:07 22° WSW 10:17:46 23° W 10:20:20 10° NW
Cosmos 1892 Rocket 4.2 10:15:18 10° N 10:19:36 57° E 10:23:53 10° SSE
Cosmos 405 3.2 10:18:50 10° NNW 10:22:15 48° W 10:25:31 11° S
Cosmos 2112 Rocket 4.4 10:17:26 10° NNW 10:22:28 44° WSW 10:27:26 10° S
Cosmos 1707 2.6 10:20:31 10° N 10:24:24 86° WSW 10:28:13 10° S
Cosmos 864 Rocket 4.5 10:21:14 10° N 10:27:28 79° W 10:33:36 10° S
PSLV R/B 4.1 10:24:14 10° SSE 10:28:17 78° ENE 10:32:25 10° N
CBERS 1 LM4 rocket 4.4 10:25:35 10° N 10:30:18 68° WNW 10:35:04 10° SSW
SL-16 R/B 4.4 10:30:39 10° W 10:31:35 10° W 10:32:30 10° WNW
ARIANE 5 R/B 4.0 10:34:59 10° NNW 10:38:55 23° WNW 10:42:51 10° WSW
Cosmos 2298 Rocket 4.1 10:33:54 10° SSW 10:39:11 84° ESE 10:44:31 10° NNE
Meteor 1-28 Rocket 3.3 10:35:52 10° S 10:39:36 56° W 10:43:20 10° NNW
H-2A R/B 2.7 10:35:18 10° NNE 10:39:48 90° WNW 10:44:19 10° SSW
Meteor 1-15 Rocket 4.2 10:34:20 10° SSW 10:40:03 81° W 10:45:43 10° N
ADEOS 3.6 10:35:04 10° NNE 10:40:19 79° WNW 10:45:31 10° SSW
GPS 2-04 Rocket1 4.4 10:39:26 10° SSW 10:41:38 16° SSE 10:43:49 10° ESE
Cosmos 1697 Rocket 3.8 10:36:41 10° NNW 10:42:11 49° ENE 10:47:39 10° SE
Aureole 2 Rocket 3.1 10:40:53 10° NW 10:43:37 27° WSW 10:46:11 10° SSW
Cosmos 1833 Rocket 2.9 10:38:45 10° SSW 10:44:21 72° ESE 10:50:00 10° NNE
Cosmos 2150 Rocket 4.0 10:43:45 10° SSW 10:48:58 88° WNW 10:54:09 10° NNE
Cosmos 1980 Rocket 4.3 10:44:27 10° N 10:49:27 32° ENE 10:54:25 10° ESE
Cosmos 1766 4.0 10:48:27 10° S 10:52:13 54° E 10:56:02 10° NNE
Cosmos 2084 3.5 10:50:52 10° NW 10:54:54 50° WSW 10:58:50 10° SSE
Cosmos 158 Rocket 4.3 10:50:08 10° NNW 10:54:54 44° WSW 10:59:47 10° S
GEOS 3 Rocket 4.4 10:51:28 10° NNE 10:56:16 41° NW 11:01:05 10° WSW
Cosmos 2366 rocket 4.5 10:55:47 10° NNW 11:01:26 40° W 11:07:05 10° SSW
Atlas Centaur 2 3.4 10:57:29 10° SW 11:03:15 29° S 11:08:02 10° ESE
CZ-2C R/B 3.4 10:59:12 10° NNE 11:03:55 47° E 11:08:28 10° S
Cosmos 1656 3.8 11:02:09 10° NNW 11:07:47 63° WSW 11:13:22 10° S
